Weather Roundup
Issued by NWS Springfield, MO

Home | Current Version | Previous Version | Text Only | Print | Product List | Glossary On
Versions: 1 2 3 4 5 6 7 8 9 10 11 12 13 14 15 16 17 18 19 20 21 22 23 24 25 26 27 28 29 30 31 32 33 34 35 36 37 38 39 40 41 42 43 44 45 46 47 48 49 50
000
NZUS99 KSGF 030259
HRRSGF

HOURLY WEATHER
NATIONAL WEATHER SERVICE SPRINGFIELD MO
1000 PM CDT THU JUL 02 2015

......SGF CWA......

CITY           SKY/WX    TMP DP  RH WIND       PRES   REMARKS
SPRINGFIELD    CLOUDY    75  71  87 N6        29.91R
JOPLIN         CLOUDY    74  72  93 CALM      29.93R
WEST PLAINS    MOCLDY    75  71  87 CALM      29.91R
ROLLA          CLOUDY    70  67  90 NE5       29.91R
OSAGE BEACH    CLOUDY    72  66  83 CALM      29.92R

......SURROUNDING SGF CWA......

CITY           SKY/WX    TMP DP  RH WIND       PRES   REMARKS
CHANUTE        CLEAR     72  71  97 SE3       29.93R
PARSONS        MOCLDY    75  72  90 CALM      29.93R
COFFEYVILLE    MOCLDY    75  69  81 NE6       29.91R
EMPORIA        CLEAR     72  69  90 E5        29.91R
GROVE OK       CLOUDY    73  68  83 S7        29.93F
SILOAM SPRINGS CLOUDY    68  61  77 CALM        N/A
HARRISON AR    CLOUDY    70  66  87 SW3       29.92R
NEAR YELLVILLE CLOUDY    73  66  78 SW3       29.87S

......KANSAS AND MISSOURI......

CITY           SKY/WX    TMP DP  RH WIND       PRES   REMARKS
KANSAS CTY INT MOCLDY    68  66  93 NE6       29.93R FOG
DOWNTOWN KC    MOCLDY    69  66  90 NE6       29.92R
COLUMBIA       CLOUDY    69  61  75 E9        29.92R
SEDALIA        CLOUDY    72  66  81 CALM      29.93R
ST JOSEPH      CLOUDY    70  66  87 E7        29.93R
ST LOUIS       MOCLDY    71  61  70 NE8       29.91S
SPIRIT OF STL  MOCLDY    70  63  78 NE7       29.90R
KIRKSVILLE     CLOUDY    64  60  87 NE5       29.95S
WICHITA        PTCLDY    73  66  78 E5        29.92S
TOPEKA         CLOUDY    72  68  87 E5        29.92R
OLATHE         LGT RAIN  67  67 100 E5        29.92R FOG

......TENNESSEE......

CITY           SKY/WX    TMP DP  RH WIND       PRES   REMARKS
MEMPHIS        CLOUDY    84  69  60 SW12      29.89R
NASHVILLE      CLOUDY    76  72  87 W5        29.90R

......ARKANSAS.......

CITY           SKY/WX    TMP DP  RH WIND       PRES   REMARKS
FAYETTEVILLE   LGT RAIN  69  68  96 S8        29.95S
FT SMITH       TSTM      78  73  84 N8        29.91R
LITTLE ROCK    CLOUDY    83  67  58 SW8       29.90R

......OKLAHOMA.......

CITY           SKY/WX    TMP DP  RH WIND       PRES   REMARKS
TULSA          CLOUDY    73  71  93 S10       29.93R
PONCA CITY     MOCLDY    76  69  79 SE5       29.91S
MCALESTER      CLOUDY    82  70  66 S5        29.92R
OKLAHOMA CITY  TSTM      72  72 100 N25       29.96R FOG

......IOWA............

CITY           SKY/WX    TMP DP  RH WIND       PRES   REMARKS
DES MOINES     CLOUDY    67  54  63 E6        29.96F
QUAD CITIES    MOCLDY    63  58  83 CALM      29.96S

......ILLINOIS........

CITY           SKY/WX    TMP DP  RH WIND       PRES   REMARKS
QUINCY         CLOUDY    65  61  87 NE3       29.93S
CHICAGO        CLOUDY    58  49  72 N6        30.00R




USA.gov is the U.S. government's official web portal to all federal, state and local government web resources and services.